Temperature
23 24 24 23 23 23 23 23 23 23 23 24 24 23 23 23 22 22 21 20 20 20 19 19 18 18 17 17 16 16 16 15 15 15 15 15 14 14 14 14 14 14 13 13
22 23 24 23 24 24 24 24 23 23 23 24 24 24 23 23 22 21 20 20 20 19 19 18 18 18 17 17 16 16 16 15 15 15 15 15 14 14 14 14 14 13 13 13
21 22 22 22 24 24 24 24 24 23 23 24 23 23 23 22 21 21 20 19 19 19 18 18 18 18 17 17 16 16 15 15 15 15 14 14 14 14 14 13 13 13 13 13
21 21 20 23 24 24 24 24 24 24 23 23 23 22 22 22 21 20 19 19 18 18 18 18 18 17 17 17 16 16 15 15 15 14 14 14 14 14 13 13 13 13 13 13
20 20 21 22 23 23 23 23 23 23 23 23 22 22 21 21 20 20 19 18 18 18 18 17 17 17 17 16 16 16 15 15 14 14 14 14 14 13 13 13 12 12 12 12
20 19 19 21 23 23 23 21 22 22 22 21 21 20 20 20 19 19 18 18 18 17 17 17 17 16 16 16 16 15 15 15 14 14 14 14 13 13 13 12 12 12 12 12
19 19 20 22 22 22 20 20 21 21 21 21 20 20 19 19 18 18 18 17 17 17 16 16 16 16 16 15 15 15 15 14 14 14 14 13 13 13 12 12 12 12 12 12
19 19 19 20 21 20 20 21 21 20 20 20 19 19 18 18 17 17 17 16 16 16 16 16 15 15 15 15 15 15 14 14 14 14 13 13 13 13 12 12 12 11 11 11
19 19 20 20 20 20 19 20 20 20 19 19 19 18 18 17 17 16 16 16 16 15 15 15 15 15 15 15 14 14 14 14 13 13 13 13 12 12 12 11 11 11 11 10
19 20 20 19 19 19 19 19 19 18 18 18 18 18 17 17 16 16 15 15 15 15 15 14 14 14 14 14 14 14 13 13 13 13 13 12 12 12 11 11 11 11 10 10
19 19 19 19 18 18 18 18 17 17 17 17 17 17 16 16 16 15 15 15 14 14 14 14 14 14 14 14 13 13 13 13 13 12 12 12 12 11 11 11 11 11 10 10
17 18 18 18 17 17 17 17 17 16 16 16 16 16 16 15 15 15 14 14 14 14 14 14 13 13 13 13 13 13 13 12 12 12 11 11 11 11 11 11 11 10 10 10
17 17 17 17 17 16 16 16 16 16 16 16 15 15 15 15 15 14 14 14 14 14 14 13 13 13 13 13 13 12 12 12 12 12 11 11 10 10 10 10 10 10 10 10
16 16 16 16 16 16 16 15 15 15 15 15 15 15 14 14 14 14 14 13 13 13 13 13 13 13 12 12 12 12 12 12 11 11 11 10 10 10 10 10 10 9 9 9
15 15 15 15 15 15 15 15 14 14 14 14 14 14 14 14 13 13 13 13 13 13 13 12 12 12 12 12 12 11 11 11 11 11 10 10 10 9 9 9 9 9 9 8
15 15 15 15 15 14 14 14 14 14 14 14 14 13 13 13 13 13 13 12 12 12 12 12 12 12 12 11 11 11 11 11 10 10 10 10 9 9 9 8 8 8 8 8
14 14 14 14 14 14 14 14 14 13 13 13 13 13 13 12 12 12 12 12 12 12 11 11 11 11 11 11 11 10 10 10 10 10 9 9 9 9 8 8 8 8 8 8
13 13 14 14 13 13 13 13 13 13 13 13 12 12 12 12 12 12 11 11 11 11 11 11 11 11 10 10 10 10 10 9 9 9 9 9 8 8 8 8 7 7 7 7
13 13 13 13 13 13 13 13 12 12 12 12 11 11 11 11 11 11 11 10 10 10 10 10 10 10 10 10 9 9 9 9 9 9 8 8 8 7 7 7 7 7 7 7
12 12 12 12 12 12 12 12 12 12 11 11 11 11 10 10 10 10 10 10 10 10 10 10 10 9 9 9 9 9 8 8 8 8 8 7 7 7 7 7 6 6 6 6
11 11 11 11 11 11 11 11 11 11 10 10 10 10 10 10 10 10 9 9 9 9 9 9 9 9 9 9 8 8 8 8 8 7 7 7 7 6 6 6 6 6 6 5
11 10 10 10 10 10 10 10 10 10 10 10 9 9 9 9 9 9 9 9 9 9 9 9 9 8 8 8 8 7 7 7 7 7 7 6 6 6 6 6 6 5 5 5
10 10 10 10 9 9 9 9 9 9 9 9 9 9 9 9 8 8 8 8 8 8 8 8 8 8 8 7 7 7 7 7 6 6 6 6 6 6 6 5 5 5 5 4
9 9 9 9 9 8 8 8 8 8 8 8 8 8 8 8 8 8 8 8 8 8 8 8 7 7 7 7 6 6 6 6 6 5 5 5 5 5 5 5 5 4 4 4
8 8 8 8 8 8 8 8 7 7 7 7 7 7 7 7 7 7 7 7 7 7 7 7 7 6 6 6 6 6 5 5 5 5 5 5 5 5 4 4 4 4 3 3
8 8 7 7 7 7 7 7 7 7 7 7 7 7 7 7 7 6 7 7 6 6 6 6 6 6 6 5 5 5 5 5 4 4 4 4 4 4 4 4 3 3 3 3
7 7 7 7 7 7 7 6 6 6 6 6 6 6 6 6 6 6 6 6 6 6 5 5 5 5 5 5 5 5 5 4 4 4 4 4 4 3 3 3 3 2 2 2
Wind_Speed
12 11 10 9 11 10 10 10 9 9 7 5 3 1 1 2 3 3 3 3 2 2 3 4 4 3 3 4 4 5 5 5 4 3 3 3 2 2 1 1 2 2 2 2
12 12 11 13 13 12 12 11 11 11 9 5 4 2 1 1 3 3 2 2 1 2 3 3 4 4 4 4 4 5 5 4 3 3 3 3 2 2 2 2 2 1 2 2
10 11 12 13 11 11 10 10 9 9 6 4 3 2 0 2 3 3 2 2 1 1 1 2 3 4 5 4 4 4 4 3 3 2 2 2 2 2 2 2 2 2 2 2
9 10 12 6 4 6 7 8 6 5 3 3 3 2 1 3 3 3 2 2 1 1 0 0 1 2 3 4 4 4 4 4 4 3 3 2 2 3 3 2 2 3 3 3
7 10 10 8 5 4 5 5 4 4 3 2 2 1 1 3 3 3 2 2 1 0 1 1 1 1 1 2 3 4 4 4 4 4 3 3 3 3 2 2 2 2 2 3
7 8 8 3 3 3 4 4 3 3 3 2 2 1 0 3 3 3 3 2 2 1 1 1 1 1 1 1 1 2 3 3 3 3 3 3 3 3 2 2 2 2 2 2
10 10 7 3 3 2 3 2 5 4 3 2 1 1 3 3 3 3 2 2 2 1 1 1 1 1 1 1 1 1 1 2 2 2 3 3 2 2 1 1 1 2 2 2
8 9 6 2 1 1 4 4 4 5 4 4 4 4 4 3 3 2 1 1 1 1 1 1 1 0 0 0 0 1 1 1 2 2 2 2 3 2 2 1 2 2 2 2
5 4 1 1 1 3 5 6 5 5 4 3 3 2 2 1 1 1 1 0 1 0 0 0 0 0 1 0 1 1 1 1 2 2 2 2 3 3 2 2 2 2 2 2
8 6 4 4 4 4 6 8 7 6 5 4 4 2 1 1 1 1 2 1 1 1 2 1 1 1 1 1 1 1 2 2 2 2 2 2 2 2 2 2 2 2 2 2
11 8 6 5 5 6 7 8 8 8 6 5 5 4 3 3 2 2 2 2 2 2 2 2 2 2 2 2 1 2 2 2 3 3 3 2 2 2 3 3 4 4 3 3
9 8 8 8 8 8 8 8 8 8 7 6 6 5 4 4 3 3 3 2 2 3 3 3 2 2 2 2 2 2 2 2 2 2 3 3 3 1 1 2 4 5 5 4
10 9 9 9 9 8 8 8 8 8 7 7 6 5 5 4 3 3 3 4 4 3 3 3 3 2 2 2 2 3 3 2 1 2 2 3 3 3 2 1 2 4 5 5
9 10 10 9 9 8 8 8 8 8 7 7 6 5 5 4 4 4 4 4 3 3 3 3 3 3 2 1 2 3 3 2 2 2 2 3 3 3 3 3 3 2 4 6
10 10 10 10 9 9 7 7 7 7 7 6 5 5 4 5 5 4 3 3 3 3 3 3 3 2 1 1 2 2 2 2 2 2 2 3 2 2 3 3 3 2 2 3
11 11 10 10 10 9 8 7 7 7 7 7 6 5 5 5 4 3 2 3 4 4 3 3 3 2 2 2 2 2 2 3 3 2 3 3 2 3 3 3 3 2 2 3
10 10 9 9 9 8 8 7 7 7 7 7 6 5 5 4 3 3 3 3 4 4 3 3 2 2 2 2 2 2 2 2 4 3 3 3 3 3 3 2 2 2 2 3
10 9 9 8 8 7 8 7 7 7 6 6 5 5 4 5 4 4 4 4 4 4 3 2 2 2 2 2 2 2 2 3 3 3 2 2 2 3 2 2 3 3 2 3
9 9 9 9 8 7 7 7 6 6 5 5 5 5 5 5 5 4 4 4 5 5 3 2 3 3 3 3 3 2 2 3 3 3 3 3 3 3 3 3 2 2 2 2
8 8 8 8 8 7 6 6 6 5 5 5 5 5 5 5 5 5 5 5 4 3 2 2 3 3 3 3 3 2 3 3 3 3 3 3 3 3 3 3 2 2 2 2
8 8 8 7 7 6 6 6 5 5 5 4 5 6 5 5 4 4 4 4 3 1 2 3 3 2 2 2 3 3 3 3 3 3 3 3 3 3 3 3 2 2 2 1
7 7 7 6 6 6 5 5 5 5 5 5 5 5 5 5 4 4 3 3 2 2 2 2 2 2 2 3 3 3 3 3 3 3 3 3 3 3 3 3 2 2 2 1
7 6 6 6 6 6 6 5 5 5 4 4 4 5 5 4 3 3 4 3 2 3 3 2 3 3 4 3 3 3 3 3 3 3 3 3 3 3 3 3 2 2 2 1
6 6 6 5 6 6 6 6 5 4 3 4 4 4 4 3 3 3 2 3 3 3 3 3 4 4 4 3 3 3 3 3 3 2 2 2 2 2 2 2 2 2 2 2
6 6 6 5 5 5 5 5 5 4 3 3 4 4 3 2 3 2 2 2 3 3 2 3 4 4 3 3 3 3 2 2 2 2 2 2 2 2 2 2 2 2 2 2
6 5 5 5 5 4 4 3 3 3 3 3 3 3 2 2 1 1 1 2 3 3 2 2 3 3 2 2 2 2 2 2 2 2 2 2 3 3 3 3 3 2 2 2
6 5 4 4 4 4 3 3 3 3 3 3 3 3 3 2 2 1 2 2 2 2 2 2 2 2 2 2 2 2 2 2 2 2 2 2 2 3 3 3 3 2 2 2
Wind_Direction
275 282 280 271 260 258 259 264 270 282 287 284 284 265 200 149 134 121 129 137 147 162 160 156 165 171 166 163 170 174 176 187 193 199 183 176 172 170 198 227 218 190 188 167
278 276 272 268 262 257 258 263 266 274 278 285 299 279 237 133 125 127 125 125 145 172 161 171 178 179 175 177 180 175 174 176 178 183 162 159 170 179 205 220 211 208 184 163
273 278 276 262 255 254 254 256 262 270 283 292 288 285 247 109 114 121 112 113 152 183 170 193 190 177 176 182 171 162 160 159 158 157 151 166 179 182 202 205 199 202 196 180
269 272 264 268 282 268 265 269 272 275 288 295 301 333 62 100 113 126 130 137 151 177 132 164 131 149 169 170 166 161 160 169 168 169 169 172 186 203 205 208 216 210 208 195
259 262 266 270 278 294 278 278 291 290 292 308 330 297 116 73 83 91 107 117 124 115 102 73 65 70 147 161 156 160 170 180 174 171 172 183 192 198 201 211 220 216 210 182
253 257 262 282 354 343 298 276 360 5 11 19 13 281 79 46 59 72 71 75 85 65 72 72 80 104 109 136 146 169 179 177 173 175 176 183 189 191 196 204 205 197 198 187
249 256 261 315 355 335 272 354 27 23 28 348 302 6 29 47 50 65 71 64 62 59 71 66 55 100 156 153 214 189 149 159 171 170 173 175 180 184 185 189 186 196 199 195
243 249 254 17 9 331 348 4 2 6 8 8 22 30 33 43 35 39 53 76 70 39 45 59 86 104 80 180 250 97 111 151 175 166 170 168 161 178 190 193 197 211 214 210
250 253 312 316 341 352 337 323 331 341 346 356 348 358 8 15 5 351 304 194 168 188 191 269 203 200 220 305 142 147 161 183 182 161 153 162 171 179 189 200 205 217 217 222
263 261 279 292 311 339 330 324 331 340 341 339 322 317 316 294 290 300 276 266 215 204 208 224 229 240 227 195 176 187 197 200 193 182 170 159 167 177 184 203 208 215 221 231
272 279 279 281 310 320 318 319 320 325 326 322 316 306 294 281 267 262 271 244 231 227 243 239 232 232 221 186 182 215 227 210 196 183 175 178 183 188 194 200 197 204 220 219
272 291 292 292 299 309 311 309 311 310 309 306 298 290 287 283 270 255 257 255 241 230 240 245 243 237 231 207 198 216 241 233 210 184 178 183 185 189 223 202 192 194 197 200
286 297 295 299 304 304 299 298 302 300 297 294 293 292 285 280 267 259 257 253 242 235 228 235 236 233 225 217 213 226 237 229 214 196 193 201 201 196 209 263 220 208 206 204
298 300 291 293 292 293 289 289 291 290 288 288 287 284 283 280 274 262 257 257 255 243 230 231 232 229 222 216 224 239 239 218 218 209 208 214 218 214 209 211 226 235 223 214
281 281 283 290 293 293 291 287 287 287 288 286 283 278 275 270 266 263 260 252 248 241 234 229 223 224 207 212 235 246 245 219 210 211 211 216 216 218 225 224 222 220 199 197
279 279 276 278 282 284 284 279 276 278 281 279 276 273 269 267 266 261 256 245 235 232 234 229 222 211 197 215 231 233 232 224 221 217 215 213 214 220 227 232 231 225 214 196
285 284 283 280 280 280 278 276 273 274 278 279 277 273 265 260 253 251 250 249 245 235 232 233 223 206 207 219 225 223 225 216 215 226 221 217 213 222 225 226 233 234 226 202
284 288 290 288 286 286 286 283 283 282 283 284 284 277 265 258 251 246 246 243 248 247 234 223 220 227 223 219 222 224 226 215 217 222 221 221 221 219 222 226 232 232 223 210
289 293 294 293 293 286 284 286 285 281 285 286 279 274 266 262 264 260 251 243 242 245 234 211 224 226 221 210 226 222 226 221 215 214 213 219 229 223 220 226 231 226 212 208
292 297 298 297 297 296 294 296 297 291 287 283 276 273 267 264 266 262 254 248 243 239 236 224 225 230 223 196 204 226 232 225 214 209 208 212 221 222 220 220 218 223 217 208
292 295 298 297 298 300 299 297 295 292 288 280 274 270 267 264 263 261 254 260 257 256 243 235 235 232 206 200 218 233 232 230 218 207 204 208 213 218 220 219 214 215 218 218
297 296 299 302 301 298 296 293 289 283 283 279 277 278 271 262 256 260 259 263 260 246 245 230 230 231 218 218 224 229 230 234 227 211 205 206 207 212 216 216 212 213 215 208
296 297 302 304 303 302 301 298 293 283 273 272 270 269 268 264 252 251 263 266 258 246 246 242 247 235 220 217 227 230 230 229 229 224 212 208 209 207 206 206 201 197 193 191
297 300 302 304 305 301 298 299 298 296 293 292 283 275 269 268 266 255 256 249 247 245 252 238 234 229 217 223 228 229 228 229 229 223 210 201 199 195 195 192 191 188 186 190
294 295 295 295 292 291 292 298 305 304 298 293 288 284 272 259 265 275 269 243 234 237 254 240 230 227 220 224 227 230 232 232 233 224 205 187 185 190 192 188 186 184 186 193
292 288 286 286 287 285 288 291 292 288 288 293 297 295 292 286 270 277 283 263 248 248 250 240 221 216 230 239 235 233 231 234 229 213 194 188 186 187 188 186 189 187 189 192
286 285 283 285 289 289 290 289 288 289 288 292 299 303 303 296 279 266 267 265 255 249 247 230 217 219 236 240 239 235 223 210 200 195 200 204 196 194 191 190 186 185 184 186
Height
1493 1490 1490 1492 1493 1493 1495 1495 1499 1495 1492 1488 1487 1488 1489 1490 1492 1494 1496 1497 1499 1500 1501 1503 1504 1505 1506 1507 1508 1509 1510 1511 1512 1513 1513 1514 1515 1515 1516 1517 1518 1518 1519 1519
1495 1490 1489 1490 1487 1487 1488 1488 1489 1489 1489 1484 1485 1486 1487 1488 1490 1492 1494 1496 1497 1499 1499 1500 1501 1502 1503 1504 1505 1506 1507 1508 1509 1510 1510 1511 1512 1512 1513 1514 1514 1515 1516 1516
1500 1492 1491 1493 1484 1483 1484 1482 1485 1488 1486 1482 1483 1484 1485 1487 1489 1491 1493 1495 1496 1497 1498 1499 1499 1500 1501 1502 1503 1504 1505 1505 1506 1507 1508 1508 1509 1509 1510 1511 1511 1512 1513 1513
1498 1499 1506 1487 1475 1476 1478 1478 1478 1479 1480 1482 1483 1484 1485 1486 1488 1490 1492 1493 1494 1495 1496 1497 1497 1498 1499 1500 1501 1501 1502 1503 1503 1504 1504 1505 1506 1506 1507 1507 1508 1508 1509 1510
1500 1502 1494 1483 1477 1477 1479 1480 1477 1478 1479 1481 1482 1483 1485 1486 1488 1489 1490 1492 1493 1494 1494 1495 1495 1496 1496 1497 1498 1499 1499 1500 1500 1501 1501 1502 1502 1502 1503 1504 1504 1505 1505 1506
1498 1503 1501 1486 1477 1476 1479 1484 1478 1478 1480 1481 1482 1486 1486 1486 1487 1488 1489 1490 1491 1492 1492 1493 1493 1494 1494 1495 1495 1496 1496 1497 1497 1498 1498 1499 1499 1499 1500 1500 1501 1501 1502 1502
1497 1498 1490 1481 1478 1478 1490 1489 1482 1480 1481 1482 1483 1485 1486 1486 1486 1487 1488 1489 1489 1490 1490 1491 1491 1491 1492 1492 1493 1493 1494 1494 1494 1495 1495 1495 1496 1496 1497 1497 1497 1498 1498 1498
1493 1496 1494 1482 1480 1485 1486 1483 1482 1482 1481 1482 1483 1484 1485 1485 1486 1486 1486 1487 1487 1488 1488 1489 1489 1489 1489 1490 1490 1490 1491 1491 1491 1491 1492 1492 1493 1493 1493 1494 1494 1494 1494 1495
1486 1488 1483 1482 1482 1484 1484 1483 1482 1482 1482 1482 1482 1483 1484 1484 1485 1485 1485 1485 1486 1486 1486 1486 1487 1487 1487 1487 1487 1487 1487 1488 1488 1488 1488 1489 1489 1489 1490 1490 1490 1490 1491 1491
1481 1479 1480 1481 1481 1482 1482 1483 1482 1481 1481 1481 1481 1481 1482 1483 1483 1483 1483 1483 1483 1483 1483 1483 1484 1484 1485 1484 1484 1484 1484 1484 1484 1485 1485 1485 1485 1486 1486 1486 1487 1487 1487 1487
1479 1478 1479 1479 1480 1480 1480 1480 1480 1480 1480 1480 1480 1480 1480 1480 1480 1480 1481 1481 1480 1480 1480 1480 1481 1481 1481 1481 1481 1481 1481 1481 1481 1481 1481 1481 1482 1482 1482 1482 1483 1483 1483 1483
1480 1479 1479 1478 1478 1478 1478 1478 1478 1478 1478 1478 1478 1477 1477 1477 1477 1477 1477 1477 1477 1477 1477 1477 1477 1477 1478 1478 1478 1478 1478 1477 1477 1478 1477 1478 1478 1478 1479 1479 1479 1479 1479 1479
1478 1477 1477 1476 1476 1476 1476 1475 1475 1475 1475 1474 1474 1474 1474 1473 1473 1473 1473 1473 1473 1473 1473 1473 1473 1474 1474 1474 1474 1474 1474 1474 1474 1474 1474 1474 1474 1474 1474 1475 1475 1475 1475 1475
1475 1475 1474 1473 1473 1472 1472 1472 1472 1471 1471 1471 1470 1470 1470 1469 1469 1469 1469 1469 1469 1469 1469 1469 1469 1470 1470 1470 1470 1470 1470 1470 1470 1470 1470 1470 1470 1470 1470 1470 1470 1470 1470 1471
1472 1472 1471 1470 1470 1469 1468 1468 1468 1468 1467 1467 1467 1466 1466 1465 1465 1464 1464 1465 1465 1465 1465 1465 1465 1465 1465 1465 1465 1466 1466 1465 1465 1465 1465 1466 1466 1466 1466 1467 1466 1466 1466 1466
1468 1467 1467 1466 1466 1465 1464 1464 1464 1464 1463 1463 1462 1461 1461 1461 1460 1460 1460 1460 1460 1460 1460 1460 1460 1460 1460 1460 1461 1461 1461 1461 1461 1461 1461 1461 1462 1462 1462 1462 1462 1462 1462 1462
1464 1463 1462 1461 1461 1460 1460 1460 1460 1459 1459 1458 1457 1457 1456 1456 1456 1456 1455 1456 1456 1456 1455 1456 1456 1456 1456 1456 1456 1456 1456 1456 1457 1457 1457 1457 1457 1458 1458 1458 1458 1458 1458 1458
1461 1460 1459 1458 1457 1456 1456 1455 1455 1454 1454 1453 1453 1452 1452 1452 1451 1451 1451 1451 1451 1451 1451 1451 1451 1451 1451 1451 1452 1451 1452 1452 1452 1452 1452 1453 1453 1454 1454 1454 1454 1454 1454 1454
1456 1455 1454 1453 1453 1452 1452 1451 1450 1450 1449 1449 1448 1448 1447 1447 1447 1447 1447 1446 1446 1446 1446 1446 1447 1446 1446 1447 1447 1447 1447 1447 1447 1447 1448 1448 1449 1449 1449 1450 1450 1450 1450 1450
1451 1451 1450 1449 1448 1448 1447 1446 1446 1445 1445 1445 1444 1443 1443 1442 1443 1442 1442 1441 1441 1441 1441 1442 1442 1441 1442 1442 1442 1442 1442 1442 1442 1442 1443 1443 1444 1444 1445 1445 1445 1446 1445 1445
1447 1446 1446 1445 1444 1443 1443 1442 1442 1441 1440 1440 1439 1438 1438 1438 1437 1437 1437 1436 1436 1437 1437 1437 1437 1437 1437 1437 1437 1437 1437 1437 1437 1437 1438 1439 1439 1440 1440 1441 1441 1441 1441 1441
1444 1443 1442 1441 1439 1438 1438 1438 1437 1436 1435 1435 1434 1434 1433 1433 1432 1432 1432 1432 1431 1431 1431 1431 1431 1431 1432 1432 1432 1432 1432 1432 1432 1432 1433 1433 1434 1435 1435 1435 1436 1436 1436 1436
1440 1439 1438 1437 1436 1434 1433 1433 1432 1431 1431 1430 1429 1429 1428 1428 1427 1427 1426 1426 1426 1426 1426 1426 1426 1426 1427 1427 1427 1427 1427 1427 1427 1427 1428 1428 1429 1429 1430 1430 1431 1431 1431 1431
1437 1436 1434 1433 1432 1431 1429 1428 1428 1427 1426 1425 1425 1424 1424 1423 1422 1422 1422 1421 1421 1421 1421 1421 1421 1421 1421 1421 1421 1422 1422 1422 1422 1423 1423 1423 1424 1424 1425 1425 1426 1426 1426 1427
1433 1432 1431 1430 1429 1427 1426 1425 1424 1423 1422 1421 1420 1420 1420 1419 1418 1417 1417 1416 1416 1416 1416 1416 1416 1416 1416 1416 1416 1417 1417 1417 1417 1418 1418 1419 1419 1420 1420 1420 1421 1421 1422 1422
1429 1428 1427 1427 1426 1425 1423 1422 1421 1420 1419 1417 1416 1416 1415 1415 1414 1413 1413 1412 1412 1412 1411 1411 1411 1411 1411 1412 1412 1412 1412 1412 1413 1413 1413 1414 1414 1415 1415 1415 1416 1416 1417 1417
1425 1425 1424 1423 1422 1421 1420 1418 1417 1416 1415 1414 1413 1412 1411 1410 1409 1409 1408 1408 1408 1407 1407 1407 1407 1407 1407 1407 1407 1407 1407 1408 1408 1408 1409 1409 1410 1410 1411 1411 1411 1412 1412 1413